Location: Unspecified
(0.0000°N, 0.0000°E)
Time: 08:34:15
(UTC+00:00)

deb Midas III - Pass Details

Date: 16 March 2026
Orbit: 3314 x 3545 km, 91.1° (Epoch: 18 April)

Event Time Altitude Azimuth Distance (km) Brightness Sun altitude
Rises 03:12:30 0° 194° (SSW) 7,609 ? -44.0°
Reaches altitude 10° 03:17:29 10° 203° (SSW) 6,571 ? -42.8°
Enters shadow 03:21:57 20° 213° (SSW) 5,756 ? -41.7°
Exits shadow 03:49:22 - 324° (NW) 6,659 ? -34.8°
Sets 03:53:13 0° 331° (NNW) 7,429 ? -33.9°
